Location: Tel Aviv
(32.0670°N, 34.7670°E)
Time: 16:15:40
(UTC+03:00)

AAUSAT CUBESAT 2 - Visible Passes

Search period start: 17 September 2024 00:00
Search period end: 27 September 2024 00:00
Orbit: 488 x 495 km, 97.6° (Epoch: 17 September)

Date Brightness Start Highest point End Pass type
(mag) Time Alt. Az. Time Alt. Az. Time Alt. Az.
17 Sep ? 04:51:54 10° NNE 04:55:13 34° E 04:58:31 10° SSE visible
18 Sep ? 04:30:30 10° NE 04:32:56 17° E 04:35:21 10° SE visible
19 Sep ? 05:40:40 10° N 05:44:04 41° WNW 05:47:28 10° SW visible
20 Sep ? 05:17:54 10° NNE 05:21:32 87° ESE 05:25:07 10° SSW visible
21 Sep ? 04:55:21 10° NNE 04:58:44 38° E 05:02:06 10° SSE visible
22 Sep ? 04:33:07 10° NE 04:35:42 18° E 04:38:14 10° SE visible
23 Sep ? 05:42:37 10° N 05:46:01 39° WNW 05:49:23 10° SW visible
24 Sep ? 05:19:06 10° NNE 05:22:43 89° E 05:26:20 10° SSW visible
25 Sep ? 04:55:48 10° NNE 04:59:12 38° E 05:02:33 10° SSE visible
26 Sep ? 04:32:52 10° NE 04:35:23 18° E 04:37:53 10° SE visible
26 Sep ? 06:06:03 10° NNW 06:08:42 19° WNW 06:11:20 10° WSW visible
